Weather in Teresina

Brazil     5°05′44″S   42°48′16″W
temp.,
°C
wind,
m/s
gust,
m/s
humid.,
%
clouds,
%
prec.,
mm/h
press.,
hPa
HPBL,
m
17 april, sat
sat1700:00+23ne119783 1.8 101127
03:00+22n1298100 1.8 100963
06:00+23ene119898 0.0 101117
09:00+26sse1290100 0.8 1013294
12:00+28sse0274100 1.3 1011658
15:00+27nw1278100 1.6 1008132
18:00+25w1183100 0.1 100931
21:00+24s1182100 0.1 101117
18 april, sun
sun1800:00+22nnw119982 4.0 101226
03:00+22nw009896 4.1 101023
06:00+22wnw009812 0.0 101113
09:00+28se017090 0.0 1013644
12:00+34e134488 0.0 10102108
15:00+33ene224345 0.0 10072474
18:00+25n268816 0.5 1009118
21:00+22e2598100 5.5 1012128
19 april, mon
mon1900:00+22e1398100 2.4 1012101
03:00+22nw1198100 6.4 101147
06:00+22wnw159999 3.7 1012238
09:00+22nw1498100 5.6 1015278
12:00+26wnw2279100 0.2 1013716
15:00+26wnw227738 0.4 1011523
18:00+23w119499 1.2 101111
21:00+23e1298100 2.5 101355
20 april, tue
tue2000:00+22ene1198100 0.1 101225
03:00+22e1198100 0.5 101124
06:00+22nw0099100 0.7 101225
09:00+26nnw008648 1.1 1014559
12:00+27nne128651 2.6 1012673
15:00+29nw0166100 4.5 1010935
18:00+24e119194 1.2 101011
21:00+22nne1197100 2.8 101333
21 april, wed
wed2100:00+22n2798100 2.2 1013293
03:00+22nnw1499100 2.9 1011159
06:00+22ne119995 2.8 101337
09:00+23sse1195100 5.1 1015161
12:00+27s118329 2.8 1012730
15:00+27sw1288100 5.4 1010651
18:00+24sse1195100 6.3 101017
21:00+23wsw1398100 12.1 101380